Buffalo, NY

8:40 AM EST on December 15, 2019 (GMT -0500)
Buffalo Niagara International

Weather History for KBUF - October, 2019

Change the Weather History Date:

Thursday, October 31, 2019

  Actual Average Record
Temperature  
Mean Temperature 51 °F 46 °F  
Max Temperature 62 °F 54 °F 73 °F (1971)
Min Temperature 40 °F 38 °F 22 °F (1975)
Degree Days  
Heating Degree Days 14 19  
Month to date heating degree days 389 442  
Since 1 July heating degree days 434 605  
Cooling Degree Days 0 0  
Month to date cooling degree days 7 4  
Year to date cooling degree days 604 544  
Growing Degree Days 4 (Base 50)    
Moisture  
Dew Point 55 °F    
Average Humidity 86    
Maximum Humidity 100    
Minimum Humidity 71    
Precipitation  
Precipitation 1.43 in 0.11 in 1.43 in (2019)
Month to date precipitation 5.83 3.52  
Year to date precipitation 40.48 32.58  
Snow  
Snow 0.00 in 0.10 in 4.00 in (1917)
Month to date snowfall 0.0 0.9  
Since 1 July snowfall 0.0 0.9  
Since 1 September snowfall 0.0 0.9  
Snow Depth 0.00 in    
Sea Level Pressure  
Sea Level Pressure 29.53 in    
Wind  
Wind Speed 12 mph (SSE)    
Max Wind Speed 41 mph    
Max Gust Speed 59 mph    
Visibility 6 miles    
Events Rain    
T = Trace of Precipitation, MM = Missing Value Source: NWS Daily Summary

Daily Weather History Graph

Daily Weather History Graph

Search for Another Location

Airport or City:

Astronomy

Oct. 31, 2019 Rise Set
Actual Time 7:47 AM EDT 6:08 PM EDT
Civil Twilight 7:18 AM EDT 6:38 PM EDT
Nautical Twilight 6:44 AM EDT 7:11 PM EDT
Astronomical Twilight 6:11 AM EDT 7:44 PM EDT
Moon 11:38 AM EDT (10/31) 8:59 PM EDT (10/31)
Length of Visible Light 11h 19m
Length of Day
10h 20m
Waxing Crescent, 15% of the Moon is Illuminated
Oct 31
Waxing Crescent
Nov 4
First Quarter
Nov 12
Full
Nov 19
Last Quarter
Nov 26
New

Hourly Weather History & Observations

Time (EDT) Temp. Windchill Dew Point Humidity Pressure Visibility Wind Dir Wind Speed Gust Speed Precip Events Conditions
12:54 AM 53.1 °F - 52.0 °F 96% 29.86 in 6.0 mi East 4.6 mph - 0.02 in Rain Light Rain
1:54 AM 53.1 °F - 53.1 °F 100% 29.83 in 8.0 mi ESE 5.8 mph - 0.01 in   Overcast
2:54 AM 53.1 °F - 53.1 °F 100% 29.80 in 10.0 mi East 4.6 mph - N/A   Overcast
3:54 AM 53.1 °F - 53.1 °F 100% 29.79 in 9.0 mi SW 3.5 mph - 0.00 in   Overcast
4:54 AM 55.0 °F - 54.0 °F 96% 29.76 in 10.0 mi South 6.9 mph - N/A   Overcast
5:54 AM 55.0 °F - 54.0 °F 96% 29.73 in 10.0 mi South 4.6 mph - N/A   Overcast
6:54 AM 57.9 °F - 57.0 °F 97% 29.73 in 10.0 mi South 6.9 mph - N/A   Overcast
7:54 AM 59.0 °F - 57.9 °F 96% 29.70 in 10.0 mi South 6.9 mph - N/A   Overcast
8:54 AM 60.1 °F - 57.9 °F 93% 29.70 in 10.0 mi SSE 5.8 mph - 0.00 in Rain Light Rain
9:54 AM 60.1 °F - 59.0 °F 96% 29.67 in 10.0 mi SSE 4.6 mph - 0.00 in Rain Light Rain
10:54 AM 59.0 °F - 59.0 °F 100% 29.64 in 6.0 mi Calm Calm - 0.02 in Rain Light Rain
11:54 AM 60.1 °F - 60.1 °F 100% 29.61 in 8.0 mi SE 4.6 mph - 0.03 in Rain Light Rain
12:23 PM 60.1 °F - 60.1 °F 100% 29.57 in 5.0 mi East 4.6 mph - 0.05 in Rain Rain
12:52 PM 60.8 °F - 60.8 °F 100% 29.54 in 4.0 mi East 3.5 mph - 0.11 in Rain Rain
12:54 PM 60.1 °F - 60.1 °F 100% 29.55 in 4.0 mi East 3.5 mph - 0.12 in Rain Rain
1:29 PM 61.0 °F - 61.0 °F 100% 29.50 in 3.0 mi East 3.5 mph - 0.10 in Rain Heavy Rain
1:51 PM 60.8 °F - 60.8 °F 100% 29.49 in 2.5 mi SE 6.9 mph - 0.17 in Rain Rain
1:54 PM 61.0 °F - 61.0 °F 100% 29.49 in 2.0 mi SE 6.9 mph - 0.18 in Rain Heavy Rain
2:10 PM 61.0 °F - 61.0 °F 100% 29.46 in 4.0 mi ESE 10.4 mph - 0.08 in Rain Rain
2:27 PM 62.1 °F - 61.0 °F 96% 29.45 in 2.5 mi ESE 8.1 mph - 0.12 in Rain Heavy Rain
2:30 PM 61.0 °F - 61.0 °F 100% 29.44 in 1.8 mi ESE 6.9 mph - 0.13 in Rain Heavy Rain
2:54 PM 61.0 °F - 61.0 °F 100% 29.43 in 1.8 mi NNE 3.5 mph - 0.28 in Rain Heavy Rain
3:24 PM 61.0 °F - 61.0 °F 100% 29.39 in 2.5 mi East 4.6 mph - 0.12 in Rain Rain
3:54 PM 62.1 °F - 62.1 °F 100% 29.39 in 1.5 mi Calm Calm - 0.21 in Rain Heavy Rain
4:14 PM 61.0 °F - 61.0 °F 100% 29.40 in 2.5 mi NW 10.4 mph - 0.09 in Rain Rain
4:31 PM 57.0 °F - 57.0 °F 100% 29.38 in 3.0 mi NNE 4.6 mph - 0.13 in Rain Rain
4:54 PM 55.9 °F - 55.9 °F 100% 29.37 in 4.0 mi North 4.6 mph - 0.17 in Rain Rain
5:21 PM 55.9 °F - 55.9 °F 100% 29.38 in 2.5 mi NW 10.4 mph - 0.11 in Rain Rain
5:54 PM 55.0 °F - 55.0 °F 100% 29.32 in 10.0 mi ENE 12.7 mph - 0.15 in Rain Light Rain
6:42 PM 57.9 °F - 57.9 °F 100% 29.32 in 2.0 mi Calm Calm - 0.08 in Rain Rain
6:54 PM 59.0 °F - 59.0 °F 100% 29.33 in 1.5 mi SSW 5.8 mph - 0.12 in Rain Heavy Rain
7:10 PM 59.0 °F - 59.0 °F 100% 29.35 in 3.0 mi SW 35.7 mph 43.7 mph 0.11 in Rain Light Rain
7:25 PM 54.0 °F - 53.1 °F 97% 29.38 in 7.0 mi WSW 27.6 mph 47.2 mph 0.13 in Rain Light Rain
7:54 PM 53.1 °F - 51.1 °F 93% 29.42 in 10.0 mi WSW 31.1 mph 44.9 mph 0.13 in Rain Light Rain
8:35 PM 51.1 °F - 46.9 °F 86% 29.43 in 10.0 mi WSW 25.3 mph 46.0 mph 0.01 in   Overcast
8:54 PM 51.1 °F - 46.0 °F 83% 29.43 in 10.0 mi WSW 21.9 mph 52.9 mph 0.01 in   Overcast
9:54 PM 48.9 °F - 42.1 °F 77% 29.45 in 10.0 mi WSW 33.4 mph 51.8 mph N/A   Overcast
10:40 PM 46.9 °F - 39.0 °F 74% 29.48 in 10.0 mi SW 32.2 mph 50.6 mph 0.00 in Rain Light Rain
10:54 PM 46.9 °F - 37.9 °F 71% 29.48 in 10.0 mi WSW 32.2 mph 44.9 mph 0.00 in   Overcast
11:54 PM 43.0 °F 31.5 °F 36.0 °F 76% 29.50 in 9.0 mi SW 36.8 mph 56.4 mph 0.00 in   Overcast